Location: Derby
(52.9213°N, 1.4761°W)
Time: 16:34:06
(UTC+01:00)

Vanguard 1 - Pass Details

Date: 23 May 2025
Orbit: 649 x 3822 km, 34.3° (Epoch: 14 June)

Event Time Altitude Azimuth Distance (km) Brightness Sun altitude
Rises 14:35:31 0° 186° (S) 7,950 15.2 53.2°
Reaches altitude 10° 14:45:21 10° 167° (SSE) 6,742 14.8 52.2°
Maximum altitude 14:54:27 14° 141° (SE) 5,922 14.3 51.3°
Drops below altitude 10° 15:02:18 10° 115° (ESE) 5,731 13.9 50.4°
Sets 15:09:01 0° 95° (E) 6,110 13.8 49.7°
